RH
97 98 97 80 54 37 19 13 11 9 7 6 6 6 8 10 17 30 42 63 53 56 54 57 58 71 41 42 75 91 100 100 100 31 98 98 83 70 71 69 51 57 88
99 97 72 58 39 20 13 12 10 9 7 6 7 8 10 16 25 39 45 43 55 64 29 21 20 22 26 30 49 86 76 58 66 58 60 66 67 65 71 65 56 57 84
97 76 66 48 22 14 13 13 11 8 7 8 9 12 15 22 38 47 58 70 73 20 16 18 22 24 22 24 26 30 41 60 71 77 69 76 76 78 79 90 75 64 92
82 82 62 28 15 14 15 13 10 8 9 10 11 15 21 34 47 60 80 76 29 17 19 22 23 24 24 24 28 39 60 74 82 85 81 83 87 96 100 100 100 100 98
90 78 39 18 15 16 15 12 10 10 10 11 14 21 29 45 39 45 46 20 18 19 21 23 24 23 25 25 35 52 74 86 90 92 92 93 100 100 100 100 100 100 100
90 53 23 15 16 16 14 11 11 11 12 14 22 32 42 49 28 16 21 20 20 21 22 23 24 24 25 28 40 66 83 94 96 100 100 100 100 100 100 100 99 100 100
62 24 16 16 17 15 12 12 12 14 15 19 31 41 55 53 20 18 21 20 22 22 23 25 25 26 27 31 46 72 91 98 100 100 98 100 100 100 100 100 100 100 100
30 16 17 18 16 14 12 13 14 17 20 25 36 47 66 53 19 21 22 22 22 23 25 26 26 28 31 38 57 83 95 95 100 100 100 100 100 97 100 100 99 100 100
17 20 19 18 16 13 13 15 19 21 26 33 42 56 73 42 20 24 22 23 23 24 27 26 25 31 35 47 69 87 89 92 99 100 97 94 96 99 100 100 97 100 100
42 21 18 17 14 12 15 20 24 26 32 38 51 67 70 29 21 27 24 23 23 27 28 24 24 30 41 56 78 89 89 83 93 96 95 91 92 100 100 100 100 100 100
26 20 17 13 11 14 20 24 26 32 37 47 58 73 63 24 25 29 25 26 25 29 27 24 26 34 48 61 82 92 93 86 84 96 95 94 98 98 99 100 100 100 100
20 15 9 9 13 18 26 31 34 40 41 52 64 77 48 21 24 30 28 27 28 31 27 24 25 33 51 63 79 90 93 94 72 98 99 98 98 99 100 100 100 100 100
11 8 9 13 20 26 30 34 41 46 46 60 76 74 35 21 23 30 30 29 30 32 28 25 24 31 49 60 68 84 90 94 80 67 100 100 99 100 100 100 100 100 100
8 9 13 21 24 31 34 37 47 50 52 70 79 56 26 22 24 34 32 30 32 34 29 26 24 28 41 57 66 77 87 93 92 52 76 100 100 100 99 99 100 96 97
11 13 21 27 29 34 36 43 53 53 60 76 72 43 25 22 25 34 36 33 34 36 31 27 24 24 35 56 66 73 81 90 96 91 40 74 100 100 100 99 99 100 100
15 22 30 34 33 39 42 45 51 56 69 74 63 43 32 24 25 31 38 35 34 39 34 28 27 26 25 35 54 65 73 83 91 98 83 37 56 100 100 100 99 99 100
24 31 38 40 37 42 45 48 55 59 65 75 66 56 44 32 24 29 38 37 35 40 39 32 29 32 31 27 31 47 62 72 81 86 96 88 38 35 99 100 98 100 99
34 42 43 44 44 48 55 54 57 63 73 77 70 65 56 41 30 28 37 39 36 39 44 39 32 33 38 38 33 29 36 58 68 77 84 93 97 52 30 81 100 99 98
44 50 51 44 42 53 64 63 60 64 73 82 80 80 78 65 34 29 31 37 39 40 44 46 42 37 40 44 44 41 32 29 45 63 72 81 88 97 74 36 32 90 99
53 55 57 50 49 56 65 72 70 67 72 84 86 90 91 82 56 30 31 35 41 41 45 50 51 50 47 49 52 50 46 40 30 34 56 68 78 85 96 94 47 30 32
64 73 75 61 54 61 70 74 74 71 77 90 93 93 94 90 87 50 30 31 39 42 44 49 55 58 59 59 59 59 56 51 46 33 32 52 66 74 81 92 99 64 38
68 82 92 84 70 66 76 80 77 71 79 93 98 99 98 96 94 92 83 39 36 41 43 46 54 61 66 68 70 68 65 62 54 48 36 32 47 66 73 81 90 98 83
40 69 91 95 92 87 82 91 82 72 78 90 98 100 100 98 98 97 98 98 68 40 42 45 51 62 69 77 82 81 76 70 64 55 49 36 32 49 69 75 82 90 96
37 74 90 84 69 82 91 98 92 78 75 81 92 99 100 100 100 99 99 100 100 91 48 46 51 59 70 82 94 93 88 78 72 63 57 48 35 35 57 75 80 86 93
48 70 76 86 93 98 100 100 97 90 77 65 63 68 86 100 100 100 100 100 100 100 100 76 53 58 67 79 97 99 96 93 84 75 64 59 43 36 44 70 80 84 90
71 98 100 95 98 100 100 100 99 94 73 49 42 43 49 58 81 100 100 100 100 100 100 99 96 71 68 75 92 100 99 96 95 89 77 67 54 39 42 63 83 87 90
Wind_Speed
36 41 39 33 33 35 37 39 41 42 43 44 44 44 43 39 34 31 29 26 31 27 30 29 30 33 36 35 33 33 32 32 37 43 36 34 36 36 35 36 36 33 31
36 40 32 31 33 35 37 39 41 43 44 44 44 43 40 35 31 30 28 27 25 30 27 29 31 32 34 35 35 35 38 41 42 41 37 38 39 37 37 37 35 32 30
37 30 30 33 34 36 38 40 42 43 43 43 43 41 38 33 30 28 26 23 28 26 27 29 30 32 33 35 37 40 42 40 36 37 38 38 37 34 33 32 32 30 28
29 31 32 34 35 38 40 41 42 42 42 42 41 39 35 31 29 26 25 24 24 25 26 28 30 32 34 36 37 38 38 34 34 35 36 36 33 28 25 25 24 22 21
30 30 32 35 37 40 41 41 41 40 41 41 40 37 33 30 27 23 21 22 24 25 26 29 32 33 34 34 35 35 32 31 32 34 35 32 27 22 21 22 22 21 22
30 30 33 36 38 39 39 40 40 40 40 39 38 36 32 29 26 23 21 23 23 25 27 29 32 34 33 32 32 32 30 30 31 32 32 31 28 24 24 19 22 20 20
28 31 34 36 38 38 39 39 40 39 39 38 36 34 30 29 25 23 22 22 22 24 27 30 31 32 32 31 32 30 27 28 30 30 29 26 24 22 21 21 21 20 21
29 32 35 37 38 38 39 39 39 38 37 36 34 32 29 27 24 22 22 21 22 24 28 30 31 30 30 31 31 28 26 27 26 25 26 27 25 21 20 21 21 20 20
30 34 36 37 38 39 39 39 37 36 36 34 32 29 26 26 23 22 21 21 21 24 27 29 29 29 29 29 29 26 25 23 23 24 23 21 18 16 14 16 17 17 18
33 35 35 37 39 39 39 37 36 35 35 33 30 27 25 24 22 21 20 20 21 24 26 27 29 28 28 28 27 24 23 22 22 20 17 16 12 11 12 11 12 13 15
34 33 35 38 39 38 37 36 35 34 33 31 29 26 25 23 21 19 19 20 21 23 25 26 27 27 26 26 25 22 22 22 22 18 14 12 10 9 8 8 10 12 11
32 34 37 38 38 37 35 34 33 32 31 30 27 25 24 22 20 19 18 19 20 23 23 25 25 25 24 24 23 21 20 20 20 18 13 10 8 6 5 7 8 7 9
31 34 37 38 36 33 32 32 31 31 30 28 26 24 22 21 20 18 18 18 19 21 22 24 24 23 23 22 23 21 19 19 17 18 13 9 6 4 2 6 6 5 5
31 34 36 34 33 32 33 32 31 30 29 26 24 22 22 20 19 18 18 17 18 19 20 21 22 22 21 22 22 22 20 19 16 16 15 9 7 5 3 2 2 5 3
31 33 33 32 32 31 31 30 29 28 27 24 22 22 22 20 20 18 17 17 17 17 18 19 20 21 21 21 21 21 20 19 18 15 16 13 8 7 5 5 3 2 1
31 31 32 31 31 31 30 29 29 26 25 22 21 22 21 21 20 18 18 17 16 16 16 17 17 19 20 20 19 20 20 19 18 16 14 14 12 8 8 7 6 4 1
30 31 31 30 31 31 30 29 28 26 24 21 22 21 21 21 19 18 18 17 16 16 15 15 15 16 18 19 19 18 18 19 18 17 15 13 13 11 8 8 8 7 7
31 31 31 31 31 31 30 29 27 26 24 22 21 21 22 22 20 18 18 18 17 16 15 15 14 14 16 17 18 19 18 18 18 17 16 15 13 12 10 8 6 9 9
31 31 31 31 31 30 30 29 27 26 25 23 21 21 22 22 21 20 19 18 18 17 16 16 15 14 15 15 16 17 18 18 17 17 16 16 14 13 11 9 7 5 8
35 34 33 33 32 32 31 30 28 27 25 23 22 21 22 22 20 20 20 19 19 19 18 17 16 16 15 15 15 16 16 17 18 17 16 16 15 14 12 10 9 6 5
38 37 36 35 33 32 32 31 29 27 26 24 23 22 21 21 19 19 19 19 19 20 19 19 18 17 16 16 16 16 16 16 17 17 16 16 15 15 13 11 10 8 6
40 39 38 36 35 34 32 32 30 27 26 25 24 23 22 22 21 20 19 19 20 20 21 21 20 19 18 17 16 16 16 16 16 16 17 16 15 15 14 12 10 9 8
41 40 39 37 35 34 33 31 29 27 26 25 24 24 23 23 22 21 21 20 21 21 22 22 22 21 20 18 18 17 17 16 16 16 16 16 16 15 14 14 12 10 9
39 38 38 39 38 34 32 30 28 25 24 24 24 25 25 25 24 24 23 22 22 22 22 23 23 23 22 20 19 19 18 17 16 16 16 16 16 15 14 14 13 12 10
36 37 37 35 32 30 29 29 25 24 23 24 24 25 26 27 27 27 26 26 25 24 24 23 24 24 24 23 21 20 19 18 18 17 16 16 16 15 15 14 14 12 11
31 30 33 34 30 28 29 27 23 23 24 26 26 26 26 27 27 28 27 26 26 26 26 25 25 25 25 25 23 21 21 20 19 18 17 16 16 15 15 14 13 13 11
Wind_Direction
283 295 306 311 306 312 314 317 318 317 317 317 319 321 320 318 313 308 300 290 288 292 300 299 299 297 296 301 301 298 295 294 293 302 297 296 294 293 290 285 281 273 269
291 303 310 306 313 313 318 319 317 317 319 322 324 324 322 320 313 307 300 292 283 298 297 298 299 300 303 305 304 301 300 300 297 300 300 299 296 293 290 287 284 275 263
302 309 308 311 313 317 317 317 319 320 323 325 324 325 323 317 310 305 300 291 293 297 301 302 303 305 307 305 304 304 303 301 298 299 302 300 299 296 292 289 285 278 270
308 309 308 311 314 315 317 320 321 323 324 324 324 323 319 314 311 306 297 296 299 302 302 305 309 310 309 307 307 306 304 301 301 302 303 304 302 301 295 293 289 282 271
303 304 308 312 314 317 319 319 321 323 322 321 321 320 317 314 313 308 304 303 303 304 307 311 313 313 310 309 309 309 305 302 304 306 306 304 302 298 293 291 290 286 268
302 306 309 312 314 316 318 320 322 321 321 320 320 319 316 311 309 306 304 304 305 307 312 316 316 317 315 313 313 312 309 308 308 309 306 302 298 292 292 281 282 281 283
303 307 310 312 314 317 319 320 320 321 320 318 318 317 312 307 308 306 305 306 306 311 316 318 320 318 317 319 319 317 313 311 311 308 303 301 298 301 297 288 283 274 269
305 309 311 313 316 317 317 317 318 319 317 317 317 315 308 306 307 305 305 305 308 315 319 322 322 321 321 324 323 322 320 318 314 310 304 298 291 285 280 280 278 275 269
310 311 312 314 315 315 315 315 316 316 316 315 316 312 307 306 307 303 304 306 312 317 322 323 325 325 325 327 326 327 327 326 321 318 313 310 301 297 294 282 280 277 274
308 309 313 314 313 313 313 314 315 315 315 316 314 310 306 305 304 301 304 308 314 321 326 327 329 330 331 331 331 330 331 334 330 327 322 321 313 300 296 297 300 288 275
306 312 313 313 312 313 312 313 314 314 314 314 311 307 305 304 301 300 303 308 315 323 328 332 332 333 333 334 334 331 332 335 338 336 332 333 328 320 307 288 279 292 286
311 313 312 313 313 313 312 313 312 312 313 312 308 305 304 304 299 299 302 306 314 323 331 335 334 335 336 338 338 335 336 335 340 342 337 336 334 340 349 352 335 304 275
313 314 314 315 315 313 314 313 311 312 313 311 306 305 305 305 300 297 300 303 313 323 333 336 338 338 339 342 344 344 340 342 343 344 338 333 327 325 12 13 359 25 343
314 317 316 315 313 313 314 314 312 313 312 309 305 305 306 303 299 296 297 300 309 321 332 337 342 342 343 346 347 349 347 343 345 347 346 330 312 298 263 321 331 323 308
318 318 315 312 314 315 315 315 313 312 310 306 305 306 306 301 297 293 293 295 304 316 329 336 344 347 346 348 348 349 350 348 346 347 347 346 318 285 271 260 272 356 174
319 318 315 314 317 315 314 314 312 310 308 304 303 303 306 302 297 291 287 286 294 307 320 331 341 348 349 347 348 348 350 352 350 346 347 348 346 318 268 265 252 224 192
319 316 314 315 316 315 312 312 309 308 307 302 303 304 305 302 298 291 285 283 286 298 308 319 332 343 348 350 348 348 350 351 353 351 348 348 350 349 337 265 257 244 213
316 315 314 316 317 315 311 310 307 306 304 303 302 303 304 303 299 291 283 280 279 285 296 306 316 328 339 347 349 350 349 348 349 351 350 348 346 352 353 349 282 247 236
313 315 314 312 313 313 309 307 305 302 301 299 297 301 301 303 302 293 285 280 276 280 288 295 303 312 322 333 342 347 349 350 346 347 349 349 346 343 349 351 344 319 255
313 314 314 312 312 312 311 306 301 297 295 294 294 296 299 303 307 299 288 282 276 273 279 285 291 299 307 316 326 336 343 347 348 345 344 346 345 344 339 339 345 340 324
311 310 310 308 308 308 308 306 300 294 289 288 289 291 293 296 302 303 294 288 278 272 273 277 281 288 296 303 311 320 329 336 343 343 342 340 340 340 340 335 329 335 332
306 306 306 306 305 306 304 303 299 292 286 284 283 285 288 290 292 297 300 293 284 275 272 274 277 280 286 293 300 306 313 321 329 336 338 337 334 333 333 332 328 320 317
302 301 301 302 302 302 299 298 296 292 287 284 282 282 283 288 289 291 292 294 290 283 276 273 273 275 278 284 292 298 303 309 316 324 329 331 329 326 325 325 323 320 312
299 297 298 299 298 296 293 292 291 290 289 286 284 283 284 286 288 289 289 289 289 287 282 274 271 270 272 275 284 290 294 300 306 312 318 322 323 320 316 315 316 312 307
298 296 300 302 297 291 287 285 285 287 288 289 289 287 283 280 283 283 285 284 284 284 283 276 271 268 268 269 278 283 286 291 297 302 307 313 316 314 309 306 306 306 302
298 298 298 306 300 292 288 282 281 284 288 290 289 288 287 284 279 278 281 283 281 282 282 282 272 266 264 266 271 278 280 283 288 293 298 303 307 307 302 297 295 297 296